Weather Service Report


102 
ASUS45 KPSR 210010
RWRAZ 

ARIZONA REGIONAL HOURLY WEATHER ROUNDUP
NATIONAL WEATHER SERVICE PHOENIX AZ
500 PM MST MON OCT 20 2014

NOTE: FAIR INDICATES FEW OR NO CLOUDS BELOW 12,000 FEET WITH NO
SIGNIFICANT WEATHER AND/OR OBSTRUCTIONS TO VISIBILITY.

AZZ001>003-036-210100-
NORTHWEST ARIZONA

CITY           SKY/WX    TMP DP  RH WIND       PRES   REMARKS
BULLHEAD CITY  SUNNY     91  45  19 S7        29.77F
KINGMAN        CLEAR     78  44  29 SW8       29.94F
6HR MIN TEMP:  76; 6HR MAX TEMP:  81;

$$

AZZ004>008-015-016-018-210100-
NORTH CENTRAL ARIZONA

CITY           SKY/WX    TMP DP  RH WIND       PRES   REMARKS
GRAND CANYON   PTCLDY    63  39  41 NE9       30.13S
6HR MIN TEMP:  63; 6HR MAX TEMP:  68;

PRESCOTT       PTCLDY    70  35  27 S7        30.04S
6HR MIN TEMP:  68; 6HR MAX TEMP:  74;

FLAGSTAFF      MOCLDY    60  39  45 S5        30.16S
6HR MIN TEMP:  59; 6HR MAX TEMP:  64;

PAYSON         CLEAR     70  43  37 SW5       30.07S
$$

AZZ009>014-017-210100-
NORTHEAST ARIZONA

CITY           SKY/WX    TMP DP  RH WIND       PRES   REMARKS
WINSLOW        CLEAR     72  40  31 SE5       30.04F
6HR MIN TEMP:  64; 6HR MAX TEMP:  74;

SAINT JOHNS    CLOUDY    67  40  37 S5        30.09R
6HR MIN TEMP:  55; 6HR MAX TEMP:  69;

SHOW LOW       PTCLDY    59  37  44 CALM      30.16R
$$

AZZ023-210100-
GREATER PHOENIX AREA

CITY           SKY/WX    TMP DP  RH WIND       PRES   REMARKS
PHOENIX        PTCLDY    88  46  23 NE3       29.79F
6HR MIN TEMP:  82; 6HR MAX TEMP:  90;

BUCKEYE          N/A     84  48  28 E3        29.81F
GLENDALE       PTCLDY    88  46  23 CALM      29.82F
LUKE AFB       CLEAR     87  51  28 CALM      29.80F
6HR MIN TEMP:  80; 6HR MAX TEMP:  87;

DEER VALLEY    CLEAR     85  46  25 VRB3      29.81F
6HR MIN TEMP:  80; 6HR MAX TEMP:  87;

SCOTTSDALE     CLEAR     86  46  24 CALM      29.83F
6HR MIN TEMP:  81; 6HR MAX TEMP:  88;

MESA-GATEWAY   PTCLDY    86  48  26 MISG      29.84F
CHANDLER       PTCLDY    88  48  25 VRB5      29.81F
$$

AZZ027-028-210100-
SOUTHWEST MARICOPA COUNTY AND PINAL COUNTY

CITY           SKY/WX    TMP DP  RH WIND       PRES   REMARKS
CASA GRANDE    CLEAR     86  46  25 CALM      29.82F
6HR MIN TEMP:  79; 6HR MAX TEMP:  88;

GILA BEND      PTCLDY    88  46  23 N3        29.80F
$$

AZZ503-504-507>509-210100-
SOUTHEAST ARIZONA

CITY           SKY/WX    TMP DP  RH WIND       PRES   REMARKS
TUCSON         PTCLDY    82  48  30 N5        29.89S
6HR MIN TEMP:  77; 6HR MAX TEMP:  85;

DAVIS-MONTHAN  CLEAR     81  42  25 NE7       29.87F
6HR MIN TEMP:  77; 6HR MAX TEMP:  82; 6HR PCP: TRACE;

RYAN FIELD       N/A     84  50  30 W9        29.88F
NOGALES        MOCLDY    75  44  33 N6        29.95F
6HR MIN TEMP:  69; 6HR MAX TEMP:  78; 6HR PCP: TRACE;

SIERRA VISTA   PTCLDY    72  41  33 NE8       29.99S
DOUGLAS        MOCLDY    69  46  43 N8        30.00R
6HR MIN TEMP:  67; 6HR MAX TEMP:  77;

SAFFORD        PTCLDY    73  52  47 E10       29.95R
6HR MIN TEMP:  70; 6HR MAX TEMP:  78;

$$

AZZ020-021-025-026-031-210100-
SOUTHWEST ARIZONA

CITY           SKY/WX    TMP DP  RH WIND       PRES   REMARKS
YUMA           MOSUNNY   93  46  19 CALM      29.75F
6HR MIN TEMP:  87; 6HR MAX TEMP:  94;

$$

CAZ031-033-041-043-047-048-061-210100-
SOUTHERN CALIFORNIA

CITY           SKY/WX    TMP DP  RH WIND       PRES   REMARKS
DOWNTOWN L.A.  SUNNY     72  60  66 VRB6      29.86F
6HR MIN TEMP:  70; 6HR MAX TEMP:  79;

L.A. AIRPORT   MOSUNNY   69  62  78 W14       29.87F
6HR MIN TEMP:  69; 6HR MAX TEMP:  73;

SAN DIEGO      MOSUNNY   72  60  66 W9G17     29.89S
6HR MIN TEMP:  71; 6HR MAX TEMP:  73;

BURBANK        SUNNY     75  57  53 S9        29.86S
6HR MIN TEMP:  66; 6HR MAX TEMP:  79;

ONTARIO        MOSUNNY   79  55  43 W9        29.86F
6HR MIN TEMP:  67; 6HR MAX TEMP:  81;

RIVERSIDE      SUNNY     79  57  46 W10       29.86S
6HR MIN TEMP:  64; 6HR MAX TEMP:  81;

PALM SPRINGS   MOSUNNY   91  49  23 CALM      29.78F
6HR MIN TEMP:  82; 6HR MAX TEMP:  92;

EL CENTRO NAS  MOSUNNY   94  48  20 NE3       29.73F
6HR MIN TEMP:  84; 6HR MAX TEMP:  96;

IMPERIAL       SUNNY     93  51  23 NE5       29.73F
6HR MIN TEMP:  83; 6HR MAX TEMP:  94;

BLYTHE         SUNNY     91  47  21 CALM      29.76F
6HR MIN TEMP:  83; 6HR MAX TEMP:  92;

NEEDLES        SUNNY     92  42  17 SW8       29.78F
6HR MIN TEMP:  84; 6HR MAX TEMP:  93;

$$

NVZ020-UTZ003-210100-
SOUTHERN NEVADA-UTAH

CITY           SKY/WX    TMP DP  RH WIND       PRES   REMARKS
LAS VEGAS      MOSUNNY   87  41  19 S12       29.78F
6HR MIN TEMP:  78; 6HR MAX TEMP:  88;

SALT LAKE CITY PTCLDY    75  35  23 S6        29.91F
6HR MIN TEMP:  71; 6HR MAX TEMP:  79;

$$

NMZ009-TXZ055-210100-
NEW MEXICO-WEST TEXAS

CITY           SKY/WX    TMP DP  RH WIND       PRES   REMARKS
ALBUQUERQUE    CLOUDY    60  51  72 NE5       30.15S
6HR MIN TEMP:  56; 6HR MAX TEMP:  73; 6HR PCP:  0.44;

EL PASO        MOCLDY    71  49  45 SE7       30.00S
6HR MIN TEMP:  67; 6HR MAX TEMP:  73;

$$


........................KEY........................
SKY/WX - SKY CONDITION/WEATHER
TMP    - TEMPERATURE IN FAHRENHEIT
DP     - DEW POINT IN FAHRENHEIT
RH     - RELATIVE HUMIDITY IN PERCENT
WIND   - DIRECTION AND SPEED IN MILES PER HOUR (MPH)
VRB    - VARIABLE WIND DIRECTION
PRES   - MEAN SEA LEVEL PRESSURE IN INCHES OF MERCURY
         F - FALLING PRESSURE   R - RISING PRESSURE
         S - STEADY PRESSURE
VSB    - VISIBILITY IN MILES
HX     - HEAT INDEX IN FAHRENHEIT
WCI    - WIND CHILL INDEX IN FAHRENHEIT
TC     - TEMPERATURE IN CELSIUS WHICH IS ALSO KNOWN AS
         TEMPERATURE IN CENTIGRADE
AFB    - AIR FORCE BASE
         LUKE AFB IS LUKE AIR FORCE BASE
         DAVIS-MONTHAN IS DAVIS-MONTHAN AIR FORCE BASE
NAS    - NAVAL AIR STATION
         EL CENTRO NAS IS EL CENTRO NAVAL AIR STATION
N/A    - NOT AVAILABLE

Return to Home page


Western Regional Climate Center, wrcc@dri.edu